loading
DOY 173 | 2024-06-21T05:44:40Z

THOR ABLESTAR DEB, 233

Orbit data source: Space-Track

THOR ABLESTAR DEB, 233 is space debris in LEO originally from a launch on Thu, 29 Jun 1961 UTC launched from the Air Force Eastern Test Range (AFETR). Debris objects in space refer to the collection of defunct objects orbiting the Earth. Examples of debris include non-operational satellites, rocket bodies, and fragments generated from explosions, collisions, or faulty payload assembly.

Loading next visibility...
Loading greatness...
THOR ABLESTAR DEB details
NORAD ID233
COSPAR ID
1961-015BR
Orbit
LEO
Last TLE update1 day ago
Origin
Flag of USUSAF SSD (US)
ManufacturerUnknown
BusUnknown
MotorUnknown
MassWet unknown, Dry mass unknown
Launch date (UTC)
1961-06-29 (63 years ago)
Launch vehicleUnknown
Launch site
Air Force Eastern Test Range (AFETR)
Object type
Payload
Rocket body
Debris
Radar Cross SectionMedium (>0.1 m² and <1 m²)
Predictive object data (real-time)
Latitude55.65541°
Longitude-122.83237°
Altitude644.3 km
Speed7.535 km/s
Apparent Right ascension06h 21m 24s
Apparent Declination12° 12' 17"
Sunlit
Object is in daylight
Predictive observer data (real-time)
Local Sidereal Time16:43:53
Azimuth331.181° NNW
Elevation-33.171°
Doppler factor1
Orbital elements
Apogee644.455 km
Perigee600.392 km
Semi-major axis7,000.561 km
Eccentricity0.0031471
Inclination66.8435°
RAAN91.1274°
Arg. of periapsis301.9795°
True anomaly58.13309°
Mean anomaly57.8272°
Mean motion3.70548 °/min
BSTAR0.0016977
Period97.15 mins
Definitive object data (Epoch: 2024-06-19T22:40:39.239Z)
Latitude-0.00008°
Longitude-157.68015°
Altitude614.588 km
Speed7.559 km/s
True Right ascension06h 04m 30s
True Declination0° 00' 00"
Sunlit
Object was in daylight at TLE epoch
TLE from 1 day ago
0 THOR ABLESTAR DEB
1 00233U 61015BR  24171.94489861  .00013416  00000-0  16977-2 0  9992
2 00233  66.8435  91.1274 0031471 301.9795  57.8272 14.81655027270768
Epoch: 2024-06-19T22:40Z
No data available

THOR ABLESTAR DEB Visibility forecast

Observer location: 39.9160978°, -105.1181434, 0m alt.

THOR ABLESTAR DEB is not visible in the next 10 days
Span
Click to sort rows by Start time (UTC) header in descending order
Start Az.
Max El. time (UTC)
Max El. Az.
Max El.
End time (UTC)
End Az.